TimeCST,TemperatureF,Dew PointF,Humidity,Sea Level PressureIn,VisibilityMPH,Wind Direction,Wind SpeedMPH,Gust SpeedMPH,PrecipitationIn,Events,Conditions,WindDirDegrees,DateUTC
12:53 AM,30.2,28.4,93,30.09,10.0,Calm,Calm,-,N/A,,Clear,0,2013-02-06 06:53:00
1:53 AM,30.0,28.9,96,30.09,10.0,Calm,Calm,-,N/A,,Clear,0,2013-02-06 07:53:00
2:53 AM,28.9,27.0,92,30.09,9.0,Calm,Calm,-,N/A,,Clear,0,2013-02-06 08:53:00
3:53 AM,28.0,27.0,96,30.08,10.0,Calm,Calm,-,N/A,,Clear,0,2013-02-06 09:53:00
4:53 AM,27.0,26.1,96,30.09,10.0,South,3.5,-,N/A,,Clear,190,2013-02-06 10:53:00
5:53 AM,28.0,27.0,96,30.11,10.0,Calm,Calm,-,N/A,,Clear,0,2013-02-06 11:53:00
6:53 AM,27.0,26.1,96,30.13,10.0,Calm,Calm,-,N/A,,Clear,0,2013-02-06 12:53:00
7:53 AM,30.0,28.0,92,30.13,10.0,Calm,Calm,-,N/A,,Clear,0,2013-02-06 13:53:00
8:53 AM,36.0,33.1,89,30.13,10.0,Calm,Calm,-,N/A,,Clear,0,2013-02-06 14:53:00
9:53 AM,53.1,37.0,55,30.11,10.0,Calm,Calm,-,N/A,,Clear,0,2013-02-06 15:53:00
10:53 AM,63.0,39.0,41,30.10,10.0,South,17.3,23.0,N/A,,Clear,180,2013-02-06 16:53:00
11:53 AM,61.0,37.9,42,30.08,10.0,South,12.7,-,N/A,,Clear,170,2013-02-06 17:53:00
12:53 PM,64.0,39.0,40,30.04,10.0,SSE,11.5,20.7,N/A,,Clear,150,2013-02-06 18:53:00
1:53 PM,63.0,37.0,38,30.01,10.0,SSE,12.7,26.5,N/A,,Clear,160,2013-02-06 19:53:00
2:53 PM,61.0,39.0,44,30.01,10.0,South,13.8,-,N/A,,Clear,180,2013-02-06 20:53:00
3:53 PM,61.0,34.0,36,29.99,10.0,South,16.1,-,N/A,,Scattered Clouds,180,2013-02-06 21:53:00
4:53 PM,57.9,35.1,42,29.98,10.0,SSE,13.8,24.2,N/A,,Mostly Cloudy,160,2013-02-06 22:53:00
5:53 PM,55.0,37.0,51,30.00,10.0,SSE,8.1,-,N/A,,Overcast,160,2013-02-06 23:53:00
6:53 PM,54.0,36.0,51,29.99,10.0,ESE,5.8,-,N/A,,Partly Cloudy,120,2013-02-07 00:53:00
7:53 PM,50.0,37.0,61,29.98,10.0,East,5.8,-,N/A,,Clear,100,2013-02-07 01:53:00
8:53 PM,51.1,37.9,61,29.98,10.0,SE,6.9,-,N/A,,Clear,140,2013-02-07 02:53:00
9:53 PM,48.9,39.0,69,29.98,10.0,South,3.5,-,N/A,,Clear,170,2013-02-07 03:53:00
10:53 PM,48.9,39.0,69,29.96,10.0,SE,3.5,-,N/A,,Clear,130,2013-02-07 04:53:00
11:53 PM,51.1,41.0,68,29.95,10.0,SSE,11.5,-,N/A,,Clear,150,2013-02-07 05:53:00